Satellite-Ground Cal/Val Region Overpasses Predictions

Prediction of Satellite NPP Overpassing Cal/Val Region: PacNW

Region Location: (Latitude: 10.00, Longitude: 139.50) to (Latitude: 22.70, Longitude: 165.60).

Table of predicted overpasses for the next 14.0 days since TLE Epoch: 7/10/2015
Interval Starting Time Starting Location Ending Time Ending Location
1 07/11/2015 02:50:01 ( 10.02, 158.27) 07/11/2015 02:53:36 ( 22.64, 155.27)
2 07/11/2015 15:21:53 ( 22.67, 155.48) 07/11/2015 15:25:28 ( 10.05, 152.49)
3 07/12/2015 02:30:58 ( 10.03, 163.02) 07/12/2015 02:34:33 ( 22.65, 160.03)
4 07/12/2015 15:02:51 ( 22.66, 160.24) 07/12/2015 15:06:26 ( 10.04, 157.24)
5 07/13/2015 02:14:35 ( 19.37, 165.59) 07/13/2015 02:15:31 ( 22.66, 164.78)
6 07/13/2015 03:53:26 ( 10.04, 142.40) 07/13/2015 03:56:54 ( 22.26, 139.51)
7 07/13/2015 14:43:48 ( 22.66, 164.99) 07/13/2015 14:47:23 ( 10.04, 162.00)
8 07/13/2015 16:25:18 ( 22.65, 139.62) 07/13/2015 16:25:26 ( 22.18, 139.50)
9 07/14/2015 03:34:23 ( 10.05, 147.16) 07/14/2015 03:37:58 ( 22.67, 144.16)
10 07/14/2015 16:06:16 ( 22.64, 144.37) 07/14/2015 16:09:51 ( 10.02, 141.38)
11 07/15/2015 03:15:21 ( 10.06, 151.91) 07/15/2015 03:18:56 ( 22.68, 148.92)
12 07/15/2015 15:47:12 ( 22.70, 149.14) 07/15/2015 15:50:48 ( 10.02, 146.13)
13 07/16/2015 02:56:17 ( 10.00, 156.68) 07/16/2015 02:59:53 ( 22.69, 153.67)
14 07/16/2015 15:28:10 ( 22.69, 153.90) 07/16/2015 15:31:46 ( 10.01, 150.89)
15 07/17/2015 02:37:15 ( 10.01, 161.44) 07/17/2015 02:40:51 ( 22.70, 158.43)
16 07/17/2015 15:09:08 ( 22.68, 158.65) 07/17/2015 15:12:44 ( 10.00, 155.65)
17 07/18/2015 02:18:57 ( 12.67, 165.59) 07/18/2015 02:21:47 ( 22.65, 163.20)
18 07/18/2015 03:59:42 ( 10.03, 140.82) 07/18/2015 04:01:19 ( 15.73, 139.50)
19 07/18/2015 14:50:05 ( 22.68, 163.41) 07/18/2015 14:53:40 ( 10.06, 160.41)
20 07/19/2015 03:40:40 ( 10.04, 145.57) 07/19/2015 03:44:15 ( 22.66, 142.58)
21 07/19/2015 14:34:07 ( 11.87, 165.59) 07/19/2015 14:34:38 ( 10.05, 165.17)
22 07/19/2015 16:12:33 ( 22.66, 142.79) 07/19/2015 16:16:08 ( 10.04, 139.79)
23
